Flag for U.S.A. Weather past 2 weeks in Hopkinsville, Kentucky, U.S.A.

Now
82 °F

Partly sunny.


Feels Like: 81 °F
Forecast: 61 / 83 °F
Wind: 2 mph from North

Location: Fort Campbell U. S. Army Airfield

Current Time: Jul 31, 2014 at 1:36:58 PM

Latest Report: Jul 31, 2014 at 12:58 PM


Visibility: 10 mi

Pressure: 30.09 "Hg

Humidity: 39%

Dew point: 54 °F

Location of HopkinsvilleLocation

Historic Weather in Hopkinsville — Graph

°F

Hopkinsville temperature yesterday

Maximum temperature yesterday: 81 °F (at 12:58 PM)
Minimum temperature yesterday: 54 °F (at 5:58 AM)
Average temperature yesterday: 70 °F

Past Weeks' High & Low Weather Summary

 TemperatureHumidityPressure
High94 °F (Jul 27, 1:58 PM)100% (Jul 17, 2:58 AM)30.12 "Hg (Jul 17, 2:58 AM)
Low54 °F (Jul 30, 5:58 AM)33% (Jul 17, 1:58 PM)29.83 "Hg (Jul 27, 5:58 PM)
Average74 °F71%30.03 "Hg
* Reported Jul 16 11:58 AM — Jul 31 11:58 AM, Hopkinsville, Weather by CustomWeather, © 2014

Note: Actual official high and low records may vary slightly from our data, if they occured in-between our weather recording intervals... More about our weather records

Advertising

Hopkinsville weather history for previous 24 hours

 ConditionsComfort  
Time TempWeatherWind HumidityBarometerVisibility
11:58 AM
Jul 31
82 °FPassing clouds.No wind40%30.09 "Hg10 mi
10:58 AM80 °FSunny.5 mph42%30.10 "Hg7 mi
9:58 AM78 °FSunny.5 mph50%30.10 "Hg10 mi
8:58 AM74 °FSunny.6 mph60%30.11 "Hg10 mi
7:58 AM67 °FSunny.2 mph85%30.10 "Hg10 mi
6:59 AM59 °FSunny.No wind100%30.09 "Hg10 mi
5:58 AM59 °FCool.N/A100%30.08 "HgN/A
4:58 AM60 °FClear.2 mph94%30.07 "Hg10 mi
3:58 AM60 °FClear.No wind90%30.08 "Hg10 mi
2:58 AM61 °FClear.No wind87%30.08 "Hg10 mi
1:58 AM60 °FClear.No wind92%30.08 "Hg10 mi
12:58 AM63 °FClear.2 mph84%30.08 "Hg10 mi
11:58 PM
Jul 30
65 °FClear.No wind81%30.07 "Hg10 mi
10:58 PM69 °FClear.2 mph63%30.07 "Hg10 mi
9:58 PM67 °FClear.2 mph70%30.07 "Hg10 mi
8:58 PM72 °FClear.6 mph54%30.06 "Hg10 mi
7:58 PM74 °FSunny.5 mph54%30.06 "Hg10 mi
6:58 PM78 °FSunny.6 mph47%30.06 "Hg10 mi
5:58 PM80 °FScattered clouds.8 mph38%30.06 "Hg10 mi
4:58 PM80 °FPassing clouds.7 mph41%30.07 "Hg10 mi
3:58 PM81 °FPassing clouds.6 mph37%30.09 "Hg10 mi
2:58 PM80 °FScattered clouds.7 mph39%30.08 "Hg10 mi
1:58 PM81 °FScattered clouds.8 mph41%30.09 "Hg10 mi
Weather by CustomWeather, © 2014

See weather overviewHow to use our weather pages